Regional Weather Roundup
Issued by NWS Newport/Morehead, NC

Current Version | Previous Version | Text Only | Print | Product List | Glossary On
Versions: 1 2 3 4 5 6 7 8 9 10 11 12 13 14 15 16 17 18 19 20 21 22 23 24 25 26 27 28 29 30 31 32 33 34 35 36 37 38 39 40 41 42 43 44 45 46 47 48 49 50
000 ASUS42 KMHX 311613 RWRMHX WEATHER ROUNDUP FOR EASTERN NORTH CAROLINA NATIONAL WEATHER SERVICE NEWPORT/MOREHEAD CITY NC 1200 PM EDT TUE MAY 31 2016 NOTE: "FAIR" INDICATES FEW OR NO CLOUDS BELOW 12,000 FEET WITH NO SIGNIFICANT WEATHER AND/OR OBSTRUCTIONS TO VISIBILITY NCZ015>017-031-032-045>047-102-103-311700- NORTH COAST CITY SKY/WX TMP DP RH WIND PRES REMARKS EDENTON CLOUDY 78 53 42 E6 29.98S ELIZABETH CITY CLOUDY 77 69 76 NE7 29.98S KITTY HAWK PTSUNNY 76 69 79 NE5 29.98S MANTEO PTSUNNY 74 72 92 NE10 29.99S $$ NCZ045>047-081-094-103-104-311700- CENTRAL COAST CITY SKY/WX TMP DP RH WIND PRES REMARKS FRISCO PTSUNNY 74 71 91 NE9 29.96S $$ NCZ095-097-098-100-101-311700- SOUTHERN COAST CITY SKY/WX TMP DP RH WIND PRES REMARKS BEAUFORT CLOUDY 78 71 79 NE10 29.94S CEDAR ISLAND NOT AVBL JACKSONVILLE CLOUDY 81 71 71 NE7 29.92F PINEY ISLAND NOT AVBL WILMINGTON CLOUDY 77 72 84 E8 29.91S $$ NCZ011>013-027>030-043-044-078>080-089-090>093-098-311700- COASTAL PLAIN CITY SKY/WX TMP DP RH WIND PRES REMARKS AHOSKIE MOSUNNY 77 67 71 NE7 29.98S CLINTON MOSUNNY 81 72 73 NE6 29.95F ELIZABETHTOWN PTSUNNY 79 71 77 CALM 29.94S GOLDSBORO MOSUNNY 80 75 83 NE9 29.94S GREENVILLE PTSUNNY 81 72 74 E9 29.98S HAVELOCK CLOUDY 80 72 76 NE13 29.96R KENANSVILLE CLOUDY 76 69 80 CALM 29.96F KINSTON MOSUNNY 81 72 74 E6 29.97S NEW BERN LGT RAIN 77 71 82 N5 29.95F RICHLANDS LGT RAIN 75 73 94 N7 29.94F ROCKY MOUNT MOSUNNY 81 68 64 NE8 29.97S WASHINGTON SUNNY 78 71 78 NE12 29.96F WHITEVILLE CLOUDY 78 71 78 N6 29.92S $$ AMZ130-135-150-152-154-156-158-170-250-252-270-ANZ085-086-088-633-658-670-311700- MARINE OBSERVATIONS STATION/POSITION TIME TEMP WIND PRES WAVE SWELL AIR SEA DIR/SP/G HT/PER HT/PER (UTC) (F) (DEG/KT/KT) (MB) (FT/S) (FT/S) CHESAPEAKE LIGHT 1600 69 40/ 5/ 5 1016.3 64 E VA BEACH 1550 66 65 20/ 4/ 4 1015.3 5/ 9 5/ 9 DUCK 1500 67 59 40/ 5/ 5 1014.5 2 E DUCK 1511 68 N/A 3/ 8 OREGON INLET 1500 69 71 30/ 9/ 14 1014.9 13E OREGON INLT 1600 69 N/A 4/ 8 3/ 8 HATTERAS CG 1500 73 74 50/ 8/ 11 1014.1 DIAMOND BUOY 1550 76 80 360/ 10/ 12 1014.2 5/ 8 5/ 8 CAPE LOOKOUT 1600 76 60/ 10/ 11 1013.6 BEAUFORT LAB 1500 80 75 190/ 3/ 5 1013.0 30 SE NEW RVR IN 1525 76 N/A 5/ 7 27 SE WRIGHTSVLE 1508 76 76 100/ 10/ 14 1012.7 5 SE WRIGHTSVLE 1508 76 76 60/ 14/ 19 1013.4 225 S CAPE HAT 1550 76 77 170/ 10/ 12 1015.7 4/ 7 3/ 7 41 SE CHARLESTON 1550 74 77 330/ 10/ 12 1013.1 4/ 8 3/ 8 $$

USA.gov is the U.S. government's official web portal to all federal, state and local government web resources and services.